RH
48 48 48 48 48 46 45 45 44 44 45 44 43 44 45 43 43 43 43 42 41 38 34 34 36 33 31 31 30 27 26 27 29 29 32 33 33 33 33 34 32 34 40 46 53 60 64 65 62 60 61 61 56 52 52 52 52 50 46 43 42 42 42 42 44 45 45 46 47 47 46 46 47 49 51 52 53 56 57 60 63 64 65 65 65
47 47 48 45 44 42 42 42 42 44 44 42 41 41 41 41 42 42 43 43 44 40 34 34 34 31 31 31 29 25 22 24 26 27 30 32 34 34 33 33 32 33 38 43 49 57 61 60 60 59 56 57 56 53 50 50 52 54 51 49 48 47 47 47 47 47 47 48 48 48 47 47 48 50 52 54 55 57 58 60 62 64 64 63 63
46 45 44 42 40 40 40 40 40 42 42 40 39 39 40 41 41 42 42 45 46 44 40 39 37 35 34 32 27 23 22 22 24 26 28 31 34 35 34 31 31 33 37 41 47 54 56 55 57 57 56 57 58 58 56 54 55 55 50 49 49 48 48 48 48 49 51 52 51 51 50 50 49 50 51 53 54 56 58 59 61 62 63 63 62
42 41 40 39 39 39 39 39 39 41 42 41 41 41 42 42 41 41 42 44 45 44 42 42 41 39 36 31 25 22 22 21 22 24 25 31 34 34 34 32 30 32 35 39 45 50 52 52 54 57 59 62 63 64 64 61 60 58 53 52 53 49 48 47 46 46 49 52 54 54 54 52 51 51 51 51 53 54 56 58 59 61 62 62 62
40 38 38 38 39 39 39 39 39 40 42 43 42 43 44 43 43 43 42 42 43 43 41 40 39 37 33 28 24 22 20 21 22 23 25 30 34 34 34 33 29 29 33 36 39 47 53 53 54 57 57 59 62 65 64 63 64 64 60 59 60 58 56 54 51 48 48 51 54 56 56 54 52 51 51 51 51 53 55 56 58 60 60 61 60
40 38 39 40 39 39 39 39 38 38 41 42 40 40 41 42 44 43 41 42 44 43 39 36 33 29 26 24 23 21 20 21 22 23 26 31 34 34 35 35 32 28 29 31 33 42 52 54 54 55 54 54 58 60 59 60 63 64 63 63 62 61 61 60 58 56 55 55 57 59 59 57 55 53 51 50 49 50 52 54 56 58 60 60 60
43 42 41 41 40 40 39 39 38 37 39 41 40 40 41 44 46 44 41 42 44 42 35 29 26 23 21 23 23 21 21 20 21 23 26 31 35 36 36 37 36 32 30 28 30 35 44 52 53 52 53 54 56 56 54 57 59 58 60 62 61 59 59 59 59 59 60 61 61 64 66 66 63 59 54 51 50 49 50 51 53 56 58 59 60
45 45 44 43 42 42 39 38 38 37 39 41 42 43 44 45 46 43 41 42 41 36 29 24 23 21 20 22 22 21 21 21 22 24 26 30 35 36 37 38 39 39 34 29 28 30 36 47 52 52 53 53 53 53 51 53 56 55 56 57 57 57 57 56 56 57 59 61 63 66 69 71 71 68 64 60 56 53 51 50 51 52 54 56 58
46 46 45 45 45 43 40 39 39 40 43 45 46 48 48 46 44 40 39 37 35 31 26 24 25 24 19 21 22 20 21 23 24 26 26 30 36 37 38 40 41 43 40 34 31 30 31 39 46 50 53 50 48 49 49 49 52 55 55 54 54 55 56 57 57 58 58 59 62 64 66 68 71 72 71 69 65 62 59 56 54 54 54 55 56
45 46 46 46 45 42 40 39 38 41 45 47 49 50 49 45 41 36 34 32 30 29 28 26 27 25 21 21 22 20 22 24 25 28 28 30 35 36 37 39 41 41 40 38 36 33 29 30 36 42 47 47 46 47 47 47 49 52 51 52 56 58 58 57 58 61 60 59 61 62 64 65 68 69 70 71 70 69 69 66 62 60 59 58 58
45 46 46 45 43 41 40 38 39 41 43 45 48 49 46 41 36 32 30 30 31 31 31 27 26 25 23 21 21 21 24 25 25 29 31 33 36 37 37 39 39 37 37 37 37 35 31 30 32 35 39 40 41 44 46 48 50 51 50 51 55 56 56 57 57 61 62 59 59 60 62 63 65 66 67 68 69 71 74 74 71 67 65 62 61
45 46 45 44 43 43 42 41 42 44 44 43 45 47 42 36 32 30 31 31 31 30 27 25 25 26 24 22 21 23 26 25 24 29 33 35 38 39 40 40 38 36 35 34 34 35 35 35 37 38 39 39 38 38 40 41 42 44 47 51 52 51 54 56 56 60 61 59 59 60 60 61 63 65 64 65 67 69 72 76 77 74 70 66 63
45 45 44 43 44 45 45 45 45 45 43 42 44 43 37 32 31 32 32 29 25 24 25 27 29 28 25 23 24 25 25 25 27 30 33 36 39 41 41 39 37 35 34 34 32 33 35 36 37 38 39 39 39 38 37 36 35 36 39 43 46 48 53 56 56 59 58 57 60 61 60 59 61 62 62 64 65 66 68 72 75 77 76 72 68
45 44 43 43 43 44 45 45 45 43 41 41 41 36 31 31 31 32 31 27 26 28 31 33 33 31 28 25 25 26 26 27 29 31 33 36 39 40 39 37 35 35 34 33 31 31 31 33 33 33 35 35 36 36 36 35 34 35 36 37 40 47 56 58 58 57 53 51 54 57 58 59 59 58 57 57 59 61 63 66 68 71 75 77 74
43 43 43 43 44 44 44 44 43 41 39 38 34 30 30 31 31 33 32 27 30 35 37 38 37 36 34 30 28 27 28 29 31 32 34 36 38 38 38 37 35 35 35 32 29 28 28 28 28 29 30 31 31 33 33 33 34 34 35 36 37 42 48 51 53 53 49 47 47 49 51 53 55 56 55 54 55 57 60 61 63 65 70 74 76
42 42 42 44 46 46 45 45 42 39 37 34 31 30 33 35 37 38 33 30 35 40 43 46 45 43 43 40 35 31 29 30 30 32 34 36 36 35 34 33 33 33 32 30 27 26 26 26 24 24 24 24 24 25 27 28 30 31 32 34 34 37 40 42 46 47 44 43 42 42 43 44 48 50 49 48 49 51 53 56 58 61 65 68 71
40 41 42 44 47 47 46 44 40 37 36 34 34 36 39 44 46 44 37 35 42 47 52 56 53 52 52 49 44 38 33 31 30 31 32 32 31 32 31 29 30 30 29 29 27 26 28 28 27 25 24 22 21 21 21 22 24 26 27 27 28 31 34 36 37 36 35 35 35 36 37 37 37 36 35 36 38 40 41 44 48 52 57 61 65
38 40 43 44 45 46 45 43 40 38 39 38 38 41 45 49 52 50 44 43 50 56 60 63 61 59 58 55 51 46 40 35 33 30 30 30 29 29 28 27 28 28 28 30 30 30 32 31 30 29 27 26 25 23 22 22 22 22 23 23 24 25 27 28 28 28 28 29 29 29 30 30 29 27 27 29 30 31 32 34 36 40 44 49 54
36 39 42 43 44 45 44 43 41 41 42 40 38 41 46 51 55 54 50 50 56 60 63 65 65 64 62 59 56 52 47 43 39 34 31 30 29 28 27 26 27 27 28 32 34 35 35 33 33 32 31 30 30 27 25 24 23 22 23 24 24 24 23 23 24 25 26 27 27 27 26 26 25 24 24 23 22 22 23 24 26 29 32 35 38
37 39 42 44 45 48 46 44 43 44 43 41 41 45 49 53 57 56 53 56 60 61 62 64 65 65 63 60 58 55 51 47 44 41 37 34 31 29 28 28 28 28 29 33 35 36 36 35 35 34 32 33 34 34 32 31 30 29 28 28 28 27 26 24 22 21 21 21 22 22 22 22 21 21 20 19 19 19 19 19 20 21 23 25 27
37 39 42 45 48 50 48 44 43 44 43 43 46 49 52 55 56 55 56 57 56 54 55 58 60 60 60 59 58 56 55 53 51 49 46 43 39 35 33 32 32 31 32 33 34 36 37 37 37 37 36 36 38 38 37 36 35 35 35 35 34 33 32 31 29 27 23 20 19 19 18 18 19 19 20 20 20 20 20 20 20 20 20 21 22
38 40 43 47 50 50 48 45 42 42 42 45 47 50 54 55 54 56 55 51 45 43 45 49 51 51 51 52 53 53 56 59 59 57 55 53 49 45 41 39 38 37 37 37 37 37 38 38 40 43 44 44 43 41 39 37 37 37 38 39 39 38 37 36 36 34 31 28 26 24 23 23 23 24 24 24 25 25 24 24 24 23 22 21 21
37 41 45 49 50 49 48 45 41 40 42 45 46 49 52 52 52 53 50 45 41 40 41 45 47 47 45 45 45 47 49 53 56 58 59 59 58 55 51 46 43 43 42 42 43 43 43 44 45 48 51 51 50 46 43 40 38 37 37 39 39 39 39 38 37 37 36 35 33 31 29 28 27 27 27 27 27 27 26 26 26 26 25 24 23
35 40 45 48 47 47 48 44 40 40 42 43 44 46 47 47 47 46 43 42 42 42 41 44 46 46 45 45 45 45 45 47 49 51 53 54 55 56 56 53 49 47 46 46 47 49 51 50 50 51 52 51 49 48 47 44 42 40 39 39 40 40 40 39 39 38 38 38 37 37 36 34 32 30 29 28 27 27 27 27 27 26 26 26 25
34 37 42 44 43 45 47 44 41 40 42 42 43 43 42 42 44 43 42 43 43 42 42 44 45 45 46 46 47 47 47 47 47 47 48 46 46 48 50 52 51 50 49 49 49 51 54 53 52 51 51 48 45 45 46 48 45 42 40 40 40 40 40 40 40 39 38 38 37 37 37 37 36 36 35 34 32 31 30 30 29 29 28 27 26
32 33 37 39 40 44 46 44 42 41 42 43 43 42 41 42 45 45 45 45 45 44 42 43 45 46 47 49 49 49 49 49 48 48 48 46 44 44 45 47 48 48 48 48 48 50 51 52 50 50 49 47 43 43 45 47 47 44 42 41 40 40 40 40 40 40 39 38 36 35 34 33 33 33 34 34 33 32 31 30 30 30 30 29 28
31 32 33 35 39 44 46 44 43 43 43 43 43 43 43 45 48 48 47 47 48 46 42 41 43 45 48 51 52 51 52 51 49 49 49 48 46 45 46 48 48 47 46 46 46 47 49 50 50 49 49 47 44 44 45 46 48 49 49 47 46 45 44 44 44 43 42 41 39 37 36 34 33 31 30 30 29 29 29 29 29 29 29 30 29
31 31 32 34 40 45 44 43 43 44 43 43 44 43 44 47 48 48 48 47 46 44 41 39 40 43 46 50 51 51 53 53 51 51 51 51 49 47 48 49 49 48 47 46 45 46 49 49 50 50 50 49 48 48 49 48 51 55 56 54 52 51 50 50 49 48 47 46 45 44 42 41 38 35 33 31 31 30 30 30 29 28 29 29 29
31 31 32 36 44 45 44 44 43 42 43 43 44 43 43 46 48 47 46 45 44 41 38 37 38 41 45 48 48 49 50 51 52 52 53 54 53 51 49 48 49 48 47 46 46 47 49 49 49 50 51 52 52 54 56 54 54 58 59 58 57 55 55 55 55 55 53 51 49 48 47 47 46 44 40 37 36 35 34 33 32 31 31 31 31
31 31 33 39 46 46 45 45 43 42 43 43 44 43 43 45 48 49 48 47 46 42 39 38 38 40 45 47 47 47 48 50 51 51 52 54 56 56 54 51 49 48 48 48 48 47 48 49 49 49 51 53 55 57 60 60 60 60 60 60 59 59 61 61 62 62 62 60 57 55 52 51 50 49 48 45 42 40 40 39 38 37 37 36 36
32 32 34 40 46 46 45 45 44 43 43 43 43 43 43 44 46 49 49 49 48 45 42 41 40 42 45 48 48 47 48 49 51 52 52 53 56 59 59 56 53 51 50 51 50 49 49 51 51 51 52 53 55 57 60 62 64 64 64 64 63 64 65 66 66 66 67 67 67 65 63 60 57 55 54 52 48 45 44 44 43 42 43 43 42
34 34 36 41 45 44 43 44 44 44 44 43 42 42 43 44 45 47 48 48 48 47 45 44 43 43 45 48 51 51 51 51 52 54 55 54 55 58 61 59 58 56 53 52 52 51 51 52 53 53 52 53 54 55 58 61 63 65 68 69 68 67 67 68 69 68 69 69 69 69 69 69 68 66 64 60 56 52 49 48 47 46 46 46 46
35 37 39 41 43 42 41 42 44 45 44 42 41 41 44 47 47 47 48 49 49 49 49 48 47 45 46 49 53 55 55 55 55 57 59 58 57 59 61 61 60 59 56 53 53 52 52 51 51 52 51 52 53 55 57 61 63 65 68 70 71 71 70 69 69 70 69 69 68 68 69 70 71 70 68 65 62 59 57 55 53 51 50 50 49
37 40 41 41 42 41 40 42 45 46 44 42 41 42 46 49 51 50 50 50 50 51 52 52 53 53 53 54 57 59 59 58 58 58 60 61 58 60 63 61 60 59 56 54 53 53 52 51 52 53 53 54 55 56 58 60 62 65 68 71 72 72 72 71 71 71 71 71 70 69 68 70 70 69 69 69 68 67 65 62 60 58 57 58 57
37 41 43 41 41 40 41 43 45 46 44 42 42 44 47 51 52 52 52 51 50 50 50 52 56 58 58 59 61 63 62 60 59 59 62 63 60 60 63 62 60 59 55 53 53 53 54 53 54 57 58 58 59 60 60 59 59 61 65 69 72 73 74 74 75 75 74 73 74 74 72 71 71 71 71 70 70 70 68 65 63 61 62 62 63
37 41 43 42 41 41 42 44 45 44 44 43 43 45 48 51 52 53 55 53 51 51 50 52 56 58 58 60 63 64 61 59 60 61 62 63 60 59 62 63 62 60 56 54 54 55 56 56 57 59 60 60 61 63 63 63 62 61 62 64 67 70 73 74 75 75 74 74 74 74 72 70 69 70 70 69 69 68 67 66 64 63 62 62 63
38 40 42 42 41 43 44 44 43 44 44 45 45 46 48 50 52 56 59 58 56 56 54 53 56 57 56 59 63 64 61 58 59 60 61 63 60 58 61 62 62 61 57 55 56 57 57 58 59 60 59 58 59 62 64 64 63 62 61 61 62 64 66 67 69 69 70 72 72 72 69 66 65 67 66 67 68 68 68 67 66 64 62 61 61
39 41 42 41 41 43 44 43 43 45 46 46 46 47 49 51 54 58 61 61 59 59 58 58 58 57 57 59 62 64 62 59 57 57 59 62 59 57 60 62 62 61 59 57 57 58 58 58 59 60 59 58 59 61 63 63 62 61 60 60 60 61 61 61 62 63 65 66 68 68 65 61 60 61 60 59 61 65 68 69 67 65 63 60 58
39 41 42 42 42 43 43 44 45 46 47 48 48 49 50 52 56 58 60 63 62 61 61 62 62 61 60 61 62 63 62 59 57 57 60 61 60 59 62 63 63 62 61 60 58 58 58 58 58 59 59 60 61 63 64 64 63 63 64 63 62 62 61 60 59 59 60 61 63 64 60 55 54 56 55 53 52 55 60 63 64 63 61 57 54
37 40 41 42 42 42 43 46 47 47 49 50 50 49 50 54 58 60 62 66 68 66 65 67 67 68 66 65 65 66 63 60 58 57 59 61 61 62 64 64 64 63 63 61 59 58 58 58 59 60 60 61 63 65 66 67 67 67 68 68 66 65 64 62 61 60 60 61 61 58 55 52 51 51 50 49 49 48 49 51 54 55 53 50 47
35 37 39 41 42 43 45 47 48 49 50 50 49 49 51 56 60 62 66 71 73 71 70 70 72 73 71 68 67 68 64 60 57 55 56 59 61 63 62 62 62 63 63 61 59 57 57 58 60 61 62 63 65 67 69 69 70 70 69 70 68 67 65 62 59 58 58 57 56 53 50 48 47 45 45 44 44 44 44 44 45 46 45 43 41
33 35 38 43 45 47 47 47 48 50 49 48 47 49 53 57 60 63 67 72 74 73 71 70 70 70 68 66 67 68 65 61 56 52 54 58 60 59 58 59 62 63 63 62 58 55 55 58 62 64 64 65 67 69 70 70 69 68 68 68 66 63 61 57 53 50 51 52 50 48 46 46 44 42 40 39 39 40 42 42 41 41 41 40 38
33 33 38 44 46 47 47 46 47 47 46 46 47 50 53 56 59 64 68 70 71 71 71 69 68 68 67 67 68 67 64 62 56 50 51 56 57 56 57 61 64 66 65 62 59 57 60 65 67 68 68 68 66 66 67 66 65 65 64 62 59 56 54 53 50 47 46 47 47 45 43 43 43 40 38 37 37 39 40 40 40 39 38 38 37
34 33 37 41 44 45 46 46 46 45 44 45 47 49 51 54 58 66 71 69 69 74 76 72 70 71 71 70 69 66 63 63 58 50 50 54 55 56 60 63 65 67 66 63 61 61 64 68 68 66 66 64 61 61 63 63 63 62 60 56 54 53 54 54 52 48 47 46 46 45 43 42 41 40 39 39 40 40 40 40 40 39 38 38 37
37 36 36 37 39 42 45 45 45 44 43 44 45 48 50 52 57 68 75 76 75 80 82 77 73 73 71 68 67 68 66 63 58 52 50 53 54 55 58 61 65 67 66 64 62 62 63 66 65 63 61 59 59 60 61 60 59 59 56 54 53 54 55 53 51 49 48 47 46 45 43 41 41 41 41 41 41 41 41 41 41 41 40 40 39
38 36 36 36 38 39 42 43 44 44 43 42 43 47 50 53 59 67 76 81 81 82 83 79 75 73 69 63 65 69 68 62 56 52 52 55 55 55 57 61 64 65 63 62 61 61 62 62 61 59 57 57 58 58 59 58 56 55 53 53 53 54 53 52 50 49 49 48 47 46 44 42 42 42 42 42 42 42 43 43 44 44 43 43 42
38 36 35 37 37 37 39 41 43 43 42 42 44 47 51 56 62 68 75 81 82 80 81 80 77 74 70 65 64 66 65 61 56 55 56 57 56 55 57 61 62 62 60 59 59 61 62 60 57 56 56 56 56 55 54 52 51 51 52 54 54 54 52 50 49 49 49 49 49 47 45 45 45 44 44 44 44 44 46 46 46 45 42 40 38
40 38 37 37 38 38 38 40 41 42 42 42 44 49 54 60 64 69 73 77 78 77 77 78 78 75 71 67 63 61 59 59 58 57 57 55 54 56 59 60 60 58 57 57 58 58 57 55 55 55 55 54 52 49 47 47 49 52 54 55 53 51 49 48 47 46 47 49 50 50 49 49 48 47 46 46 46 46 46 45 43 40 38 37 38
41 39 38 39 40 39 38 39 41 42 42 43 46 53 58 60 64 68 70 73 76 77 77 77 74 70 67 64 61 59 58 58 58 56 53 52 53 57 60 60 58 56 56 57 58 57 54 53 53 53 51 49 45 42 42 45 50 52 52 49 48 47 47 47 46 46 49 53 55 54 52 50 49 47 46 45 44 43 42 41 39 40 42 43 43
41 39 40 42 42 40 38 38 40 42 43 44 48 55 60 60 63 69 72 73 76 78 78 75 69 65 64 63 60 59 58 57 55 52 49 51 55 58 59 58 56 56 57 58 58 55 53 51 50 48 44 41 40 40 43 47 49 48 47 46 46 46 45 44 44 46 50 55 55 52 48 46 45 43 41 39 38 39 39 41 43 46 46 43 40
41 41 43 45 44 42 40 40 42 44 46 48 52 60 64 59 58 65 71 73 76 77 76 71 65 63 64 63 60 58 56 53 50 48 49 54 58 58 57 55 56 57 60 61 58 54 51 48 45 42 39 39 41 45 47 48 47 46 46 46 45 42 39 37 38 40 43 45 46 43 40 39 39 38 37 37 38 40 43 45 46 47 44 40 36